Year,Month,Day,Hour,Minute,Value (Times are PST for temperature in C)
2022,10,05,00,00,13.20
2022,10,05,00,01,13.20
2022,10,05,00,02,13.20
2022,10,05,00,03,13.20
2022,10,05,00,04,13.20
2022,10,05,00,05,13.20
2022,10,05,00,06,13.20
2022,10,05,00,07,13.20
2022,10,05,00,08,13.20
2022,10,05,00,09,13.20
2022,10,05,00,10,13.20
2022,10,05,00,11,13.20
2022,10,05,00,12,13.10
2022,10,05,00,13,13.10
2022,10,05,00,14,13.10
2022,10,05,00,15,13.10
2022,10,05,00,16,13.00
2022,10,05,00,17,13.00
2022,10,05,00,18,13.00
2022,10,05,00,19,13.10
2022,10,05,00,20,13.20
2022,10,05,00,21,13.20
2022,10,05,00,22,13.20
2022,10,05,00,23,13.30
2022,10,05,00,24,13.30
2022,10,05,00,25,13.40
2022,10,05,00,26,13.40
2022,10,05,00,27,13.40
2022,10,05,00,28,13.40
2022,10,05,00,29,13.50
2022,10,05,00,30,13.50
2022,10,05,00,31,13.50
2022,10,05,00,32,13.50
2022,10,05,00,33,13.50
2022,10,05,00,34,13.50
2022,10,05,00,35,13.50
2022,10,05,00,36,13.40
2022,10,05,00,37,13.50
2022,10,05,00,38,13.50
2022,10,05,00,39,13.50
2022,10,05,00,40,13.60
2022,10,05,00,41,13.60
2022,10,05,00,42,13.60
2022,10,05,00,43,13.60
2022,10,05,00,44,13.50
2022,10,05,00,45,13.50
2022,10,05,00,46,13.50
2022,10,05,00,47,13.50
2022,10,05,00,48,13.40
2022,10,05,00,49,13.40
2022,10,05,00,50,13.40
2022,10,05,00,51,13.30
2022,10,05,00,52,13.30
2022,10,05,00,53,13.30
2022,10,05,00,54,13.20
2022,10,05,00,55,13.20
2022,10,05,00,56,13.20
2022,10,05,00,57,13.10
2022,10,05,00,58,13.00
2022,10,05,00,59,12.90
2022,10,05,01,00,12.80
2022,10,05,01,01,12.70
2022,10,05,01,02,12.70
2022,10,05,01,03,12.60
2022,10,05,01,04,12.50
2022,10,05,01,05,12.40
2022,10,05,01,06,12.30
2022,10,05,01,07,12.30
2022,10,05,01,08,12.20
2022,10,05,01,09,12.20
2022,10,05,01,10,12.20
2022,10,05,01,11,12.10
2022,10,05,01,12,12.10
2022,10,05,01,13,12.10
2022,10,05,01,14,12.10
2022,10,05,01,15,12.00
2022,10,05,01,16,12.00
2022,10,05,01,17,11.90
2022,10,05,01,18,11.90
2022,10,05,01,19,11.90
2022,10,05,01,20,11.90
2022,10,05,01,21,11.90
2022,10,05,01,22,11.80
2022,10,05,01,23,11.80
2022,10,05,01,24,11.80
2022,10,05,01,25,11.80
2022,10,05,01,26,11.80
2022,10,05,01,27,11.80
2022,10,05,01,28,11.80
2022,10,05,01,29,11.80
2022,10,05,01,30,11.90
2022,10,05,01,31,12.00
2022,10,05,01,32,12.20
2022,10,05,01,33,12.20
2022,10,05,01,34,12.30
2022,10,05,01,35,12.30
2022,10,05,01,36,12.30
2022,10,05,01,37,12.20
2022,10,05,01,38,12.20
2022,10,05,01,39,12.10
2022,10,05,01,40,12.10
2022,10,05,01,41,12.00
2022,10,05,01,42,12.00
2022,10,05,01,43,11.90
2022,10,05,01,44,11.90
2022,10,05,01,45,11.90
2022,10,05,01,46,11.90
2022,10,05,01,47,11.90
2022,10,05,01,48,12.00
2022,10,05,01,49,12.10
2022,10,05,01,50,12.10
2022,10,05,01,51,12.20
2022,10,05,01,52,12.20
2022,10,05,01,53,12.20
2022,10,05,01,54,12.30
2022,10,05,01,55,12.30
2022,10,05,01,56,12.40
2022,10,05,01,57,12.40
2022,10,05,01,58,12.50
2022,10,05,01,59,12.50
2022,10,05,02,00,12.50
2022,10,05,02,01,12.50
2022,10,05,02,02,12.60
2022,10,05,02,03,12.60
2022,10,05,02,04,12.60
2022,10,05,02,05,12.50
2022,10,05,02,06,12.50
2022,10,05,02,07,12.40
2022,10,05,02,08,12.40
2022,10,05,02,09,12.40
2022,10,05,02,10,12.40
2022,10,05,02,11,12.30
2022,10,05,02,12,12.30
2022,10,05,02,13,12.30
2022,10,05,02,14,12.30
2022,10,05,02,15,12.20
2022,10,05,02,16,12.20
2022,10,05,02,17,12.20
2022,10,05,02,18,12.10
2022,10,05,02,19,12.10
2022,10,05,02,20,12.10
2022,10,05,02,21,12.10
2022,10,05,02,22,12.10
2022,10,05,02,23,12.00
2022,10,05,02,24,12.00
2022,10,05,02,25,12.00
2022,10,05,02,26,11.90
2022,10,05,02,27,11.90
2022,10,05,02,28,11.90
2022,10,05,02,29,11.80
2022,10,05,02,30,11.80
2022,10,05,02,31,11.80
2022,10,05,02,32,11.80
2022,10,05,02,33,11.70
2022,10,05,02,34,11.70
2022,10,05,02,35,11.70
2022,10,05,02,36,11.70
2022,10,05,02,37,11.70
2022,10,05,02,38,11.70
2022,10,05,02,39,11.70
2022,10,05,02,40,11.70
2022,10,05,02,41,11.70
2022,10,05,02,42,11.70
2022,10,05,02,43,11.80
2022,10,05,02,44,11.80
2022,10,05,02,45,11.90
2022,10,05,02,46,11.90
2022,10,05,02,47,11.90
2022,10,05,02,48,12.00
2022,10,05,02,49,12.10
2022,10,05,02,50,12.20
2022,10,05,02,51,12.20
2022,10,05,02,52,12.30
2022,10,05,02,53,12.30
2022,10,05,02,54,12.30
2022,10,05,02,55,12.30
2022,10,05,02,56,12.40
2022,10,05,02,57,12.40
2022,10,05,02,58,12.40
2022,10,05,02,59,12.50
2022,10,05,03,00,12.70
2022,10,05,03,01,12.70
2022,10,05,03,02,12.80
2022,10,05,03,03,12.90
2022,10,05,03,04,13.00
2022,10,05,03,05,13.00
2022,10,05,03,06,13.00
2022,10,05,03,07,13.10
2022,10,05,03,08,13.10
2022,10,05,03,09,13.20
2022,10,05,03,10,13.20
2022,10,05,03,11,13.30
2022,10,05,03,12,13.30
2022,10,05,03,13,13.30
2022,10,05,03,14,13.30
2022,10,05,03,15,13.30
2022,10,05,03,16,13.30
2022,10,05,03,17,13.40
2022,10,05,03,18,13.40
2022,10,05,03,19,13.40
2022,10,05,03,20,13.40
2022,10,05,03,21,13.40
2022,10,05,03,22,13.40
2022,10,05,03,23,13.40
2022,10,05,03,24,13.40
2022,10,05,03,25,13.40
2022,10,05,03,26,13.40
2022,10,05,03,27,13.40
2022,10,05,03,28,13.40
2022,10,05,03,29,13.40
2022,10,05,03,30,13.40
2022,10,05,03,31,13.40
2022,10,05,03,32,13.30
2022,10,05,03,33,13.30
2022,10,05,03,34,13.30
2022,10,05,03,35,13.30
2022,10,05,03,36,13.20
2022,10,05,03,37,13.20
2022,10,05,03,38,13.20
2022,10,05,03,39,13.20
2022,10,05,03,40,13.20
2022,10,05,03,41,13.20
2022,10,05,03,42,13.10
2022,10,05,03,43,13.10
2022,10,05,03,44,13.10
2022,10,05,03,45,13.10
2022,10,05,03,46,13.10
2022,10,05,03,47,13.10
2022,10,05,03,48,13.10
2022,10,05,03,49,13.00
2022,10,05,03,50,13.00
2022,10,05,03,51,13.00
2022,10,05,03,52,12.90
2022,10,05,03,53,12.90
2022,10,05,03,54,12.90
2022,10,05,03,55,12.90
2022,10,05,03,56,12.80
2022,10,05,03,57,12.80
2022,10,05,03,58,12.80
2022,10,05,03,59,12.80
2022,10,05,04,00,12.70
2022,10,05,04,01,12.70
2022,10,05,04,02,12.70
2022,10,05,04,03,12.60
2022,10,05,04,04,12.60
2022,10,05,04,05,12.50
2022,10,05,04,06,12.40
2022,10,05,04,07,12.40
2022,10,05,04,08,12.40
2022,10,05,04,09,12.30
2022,10,05,04,10,12.30
2022,10,05,04,11,12.20
2022,10,05,04,12,12.20
2022,10,05,04,13,12.10
2022,10,05,04,14,12.00
2022,10,05,04,15,12.00
2022,10,05,04,16,11.90
2022,10,05,04,17,11.80
2022,10,05,04,18,11.80
2022,10,05,04,19,11.70
2022,10,05,04,20,11.70
2022,10,05,04,21,11.70
2022,10,05,04,22,11.60
2022,10,05,04,23,11.60
2022,10,05,04,24,11.60
2022,10,05,04,25,11.60
2022,10,05,04,26,11.50
2022,10,05,04,27,11.50
2022,10,05,04,28,11.50
2022,10,05,04,29,11.50
2022,10,05,04,30,11.40
2022,10,05,04,31,11.40
2022,10,05,04,32,11.40
2022,10,05,04,33,11.40
2022,10,05,04,34,11.40
2022,10,05,04,35,11.40
2022,10,05,04,36,11.30
2022,10,05,04,37,11.40
2022,10,05,04,38,11.40
2022,10,05,04,39,11.30
2022,10,05,04,40,11.20
2022,10,05,04,41,11.20
2022,10,05,04,42,11.20
2022,10,05,04,43,11.10
2022,10,05,04,44,11.10
2022,10,05,04,45,11.00
2022,10,05,04,46,11.00
2022,10,05,04,47,11.00
2022,10,05,04,48,11.00
2022,10,05,04,49,11.00
2022,10,05,04,50,11.00
2022,10,05,04,51,11.10
2022,10,05,04,52,11.10
2022,10,05,04,53,11.10
2022,10,05,04,54,11.10
2022,10,05,04,55,11.10
2022,10,05,04,56,11.20
2022,10,05,04,57,11.20
2022,10,05,04,58,11.20
2022,10,05,04,59,11.20
2022,10,05,05,00,11.20
2022,10,05,05,01,11.30
2022,10,05,05,02,11.40
2022,10,05,05,03,11.50
2022,10,05,05,04,11.70
2022,10,05,05,05,11.80
2022,10,05,05,06,11.80
2022,10,05,05,07,11.90
2022,10,05,05,08,11.90
2022,10,05,05,09,11.80
2022,10,05,05,10,11.70
2022,10,05,05,11,11.70
2022,10,05,05,12,11.60
2022,10,05,05,13,11.70
2022,10,05,05,14,11.70
2022,10,05,05,15,11.70
2022,10,05,05,16,11.80
2022,10,05,05,17,11.90
2022,10,05,05,18,11.90
2022,10,05,05,19,11.90
2022,10,05,05,20,11.80
2022,10,05,05,21,11.80
2022,10,05,05,22,11.80
2022,10,05,05,23,11.80
2022,10,05,05,24,11.80
2022,10,05,05,25,11.80
2022,10,05,05,26,11.80
2022,10,05,05,27,11.90
2022,10,05,05,28,12.00
2022,10,05,05,29,12.20
2022,10,05,05,30,12.20
2022,10,05,05,31,12.30
2022,10,05,05,32,12.40
2022,10,05,05,33,12.40
2022,10,05,05,34,12.50
2022,10,05,05,35,12.70
2022,10,05,05,36,12.70
2022,10,05,05,37,12.70
2022,10,05,05,38,12.70
2022,10,05,05,39,12.70
2022,10,05,05,40,12.80
2022,10,05,05,41,12.90
2022,10,05,05,42,12.90
2022,10,05,05,43,12.90
2022,10,05,05,44,12.90
2022,10,05,05,45,12.90
2022,10,05,05,46,12.90
2022,10,05,05,47,13.00
2022,10,05,05,48,13.00
2022,10,05,05,49,13.00
2022,10,05,05,50,13.10
2022,10,05,05,51,13.10
2022,10,05,05,52,13.20
2022,10,05,05,53,13.20
2022,10,05,05,54,13.20
2022,10,05,05,55,13.30
2022,10,05,05,56,13.30
2022,10,05,05,57,13.30
2022,10,05,05,58,13.40
2022,10,05,05,59,13.40
2022,10,05,06,00,13.40
2022,10,05,06,01,13.50
2022,10,05,06,02,13.50
2022,10,05,06,03,13.60
2022,10,05,06,04,13.60
2022,10,05,06,05,13.70
2022,10,05,06,06,13.70
2022,10,05,06,07,13.70
2022,10,05,06,08,13.80
2022,10,05,06,09,13.80
2022,10,05,06,10,13.80
2022,10,05,06,11,13.80
2022,10,05,06,12,13.80
2022,10,05,06,13,13.80
2022,10,05,06,14,13.80
2022,10,05,06,15,13.80
2022,10,05,06,16,13.80
2022,10,05,06,17,13.80
2022,10,05,06,18,13.80
2022,10,05,06,19,13.90
2022,10,05,06,20,13.80
2022,10,05,06,21,13.90
2022,10,05,06,22,13.90
2022,10,05,06,23,13.90
2022,10,05,06,24,13.90
2022,10,05,06,25,13.90
2022,10,05,06,26,13.90
2022,10,05,06,27,13.80
2022,10,05,06,28,13.80
2022,10,05,06,29,13.80
2022,10,05,06,30,13.70
2022,10,05,06,31,13.60
2022,10,05,06,32,13.60
2022,10,05,06,33,13.50
2022,10,05,06,34,13.40
2022,10,05,06,35,13.40
2022,10,05,06,36,13.40
2022,10,05,06,37,13.30
2022,10,05,06,38,13.30
2022,10,05,06,39,13.30
2022,10,05,06,40,13.30
2022,10,05,06,41,13.30
2022,10,05,06,42,13.30
2022,10,05,06,43,13.20
2022,10,05,06,44,13.20
2022,10,05,06,45,13.20
2022,10,05,06,46,13.20
2022,10,05,06,47,13.20
2022,10,05,06,48,13.20
2022,10,05,06,49,13.20
2022,10,05,06,50,13.20
2022,10,05,06,51,13.20
2022,10,05,06,52,13.20
2022,10,05,06,53,13.20
2022,10,05,06,54,13.20
2022,10,05,06,55,13.20
2022,10,05,06,56,13.10
2022,10,05,06,57,13.20
2022,10,05,06,58,13.20
2022,10,05,06,59,13.20
2022,10,05,07,00,13.10
2022,10,05,07,01,13.10
2022,10,05,07,02,13.10
2022,10,05,07,03,13.00
2022,10,05,07,04,13.00
2022,10,05,07,05,12.90
2022,10,05,07,06,12.90
2022,10,05,07,07,12.90
2022,10,05,07,08,12.80
2022,10,05,07,09,12.80
2022,10,05,07,10,12.80
2022,10,05,07,11,12.80
2022,10,05,07,12,12.80
2022,10,05,07,13,12.80
2022,10,05,07,14,12.80
2022,10,05,07,15,12.80
2022,10,05,07,16,12.80
2022,10,05,07,17,12.80
2022,10,05,07,18,12.80
2022,10,05,07,19,12.80
2022,10,05,07,20,12.80
2022,10,05,07,21,12.80
2022,10,05,07,22,12.80
2022,10,05,07,23,12.80
2022,10,05,07,24,12.80
2022,10,05,07,25,12.80
2022,10,05,07,26,12.80
2022,10,05,07,27,12.80
2022,10,05,07,28,12.80
2022,10,05,07,29,12.90
2022,10,05,07,30,12.90
2022,10,05,07,31,12.90
2022,10,05,07,32,12.90
2022,10,05,07,33,12.90
2022,10,05,07,34,12.90
2022,10,05,07,35,13.00
2022,10,05,07,36,13.00
2022,10,05,07,37,13.00
2022,10,05,07,38,13.00
2022,10,05,07,39,13.10
2022,10,05,07,40,13.10
2022,10,05,07,41,13.20
2022,10,05,07,42,13.20
2022,10,05,07,43,13.30
2022,10,05,07,44,13.30
2022,10,05,07,45,13.30
2022,10,05,07,46,13.30
2022,10,05,07,47,13.30
2022,10,05,07,48,13.30
2022,10,05,07,49,13.30
2022,10,05,07,50,13.30
2022,10,05,07,51,13.30
2022,10,05,07,52,13.30
2022,10,05,07,53,13.30
2022,10,05,07,54,13.30
2022,10,05,07,55,13.30
2022,10,05,07,56,13.30
2022,10,05,07,57,13.40
2022,10,05,07,58,13.40
2022,10,05,07,59,13.40
2022,10,05,08,00,13.40
2022,10,05,08,01,13.40
2022,10,05,08,02,13.30
2022,10,05,08,03,13.40
2022,10,05,08,04,13.40
2022,10,05,08,05,13.50
2022,10,05,08,06,13.50
2022,10,05,08,07,13.50
2022,10,05,08,08,13.50
2022,10,05,08,09,13.60
2022,10,05,08,10,13.60
2022,10,05,08,11,13.60
2022,10,05,08,12,13.60
2022,10,05,08,13,13.70
2022,10,05,08,14,13.70
2022,10,05,08,15,13.70
2022,10,05,08,16,13.70
2022,10,05,08,17,13.70
2022,10,05,08,18,13.70
2022,10,05,08,19,13.70
2022,10,05,08,20,13.80
2022,10,05,08,21,13.80
2022,10,05,08,22,13.80
2022,10,05,08,23,13.80
2022,10,05,08,24,13.90
2022,10,05,08,25,13.90
2022,10,05,08,26,13.90
2022,10,05,08,27,13.90
2022,10,05,08,28,13.90
2022,10,05,08,29,14.00
2022,10,05,08,30,14.00
2022,10,05,08,31,14.00
2022,10,05,08,32,14.00
2022,10,05,08,33,14.10
2022,10,05,08,34,14.10
2022,10,05,08,35,14.10
2022,10,05,08,36,14.10
2022,10,05,08,37,14.10
2022,10,05,08,38,14.10
2022,10,05,08,39,14.10
2022,10,05,08,40,14.10
2022,10,05,08,41,14.10
2022,10,05,08,42,14.00
2022,10,05,08,43,14.00
2022,10,05,08,44,14.00
2022,10,05,08,45,14.00
2022,10,05,08,46,14.10
2022,10,05,08,47,14.10
2022,10,05,08,48,14.10
2022,10,05,08,49,14.10
2022,10,05,08,50,14.10
2022,10,05,08,51,14.10
2022,10,05,08,52,14.20
2022,10,05,08,53,14.20
2022,10,05,08,54,14.20
2022,10,05,08,55,14.20
2022,10,05,08,56,14.20
2022,10,05,08,57,14.20
2022,10,05,08,58,14.20
2022,10,05,08,59,14.20
2022,10,05,09,00,14.20
2022,10,05,09,01,14.20
2022,10,05,09,02,14.20
2022,10,05,09,03,14.20
2022,10,05,09,04,14.20
2022,10,05,09,05,14.20
2022,10,05,09,06,14.20
2022,10,05,09,07,14.20
2022,10,05,09,08,14.20
2022,10,05,09,09,14.20
2022,10,05,09,10,14.30
2022,10,05,09,11,14.30
2022,10,05,09,12,14.30
2022,10,05,09,13,14.30
2022,10,05,09,14,14.30
2022,10,05,09,15,14.30
2022,10,05,09,16,14.30
2022,10,05,09,17,14.30
2022,10,05,09,18,14.30
2022,10,05,09,19,14.30
2022,10,05,09,20,14.30
2022,10,05,09,21,14.40
2022,10,05,09,22,14.40
2022,10,05,09,23,14.40
2022,10,05,09,24,14.40
2022,10,05,09,25,14.40
2022,10,05,09,26,14.40
2022,10,05,09,27,14.50
2022,10,05,09,28,14.50
2022,10,05,09,29,14.60
2022,10,05,09,30,14.60
2022,10,05,09,31,14.60
2022,10,05,09,32,14.60
2022,10,05,09,33,14.60
2022,10,05,09,34,14.70
2022,10,05,09,35,14.70
2022,10,05,09,36,14.80
2022,10,05,09,37,14.80
2022,10,05,09,38,14.80
2022,10,05,09,39,14.80
2022,10,05,09,40,14.90
2022,10,05,09,41,14.90
2022,10,05,09,42,14.90
2022,10,05,09,43,15.00
2022,10,05,09,44,15.00
2022,10,05,09,45,15.00
2022,10,05,09,46,15.00
2022,10,05,09,47,15.10
2022,10,05,09,48,15.10
2022,10,05,09,49,15.10
2022,10,05,09,50,15.10
2022,10,05,09,51,15.20
2022,10,05,09,52,15.20
2022,10,05,09,53,15.30
2022,10,05,09,54,15.30
2022,10,05,09,55,15.30
2022,10,05,09,56,15.30
2022,10,05,09,57,15.30
2022,10,05,09,58,15.30
2022,10,05,09,59,15.30
2022,10,05,10,00,15.30
2022,10,05,10,01,15.30
2022,10,05,10,02,15.30
2022,10,05,10,03,15.30
2022,10,05,10,04,15.30
2022,10,05,10,05,15.40
2022,10,05,10,06,15.40
2022,10,05,10,07,15.40
2022,10,05,10,08,15.30
2022,10,05,10,09,15.30
2022,10,05,10,10,15.20
2022,10,05,10,11,15.20
2022,10,05,10,12,15.20
2022,10,05,10,13,15.10
2022,10,05,10,14,15.10
2022,10,05,10,15,15.10
2022,10,05,10,16,15.10
2022,10,05,10,17,15.10
2022,10,05,10,18,15.00
2022,10,05,10,19,15.00
2022,10,05,10,20,15.00
2022,10,05,10,21,15.00
2022,10,05,10,22,15.00
2022,10,05,10,23,15.00
2022,10,05,10,24,15.00
2022,10,05,10,25,15.00
2022,10,05,10,26,15.10
2022,10,05,10,27,15.10
2022,10,05,10,28,15.10
2022,10,05,10,29,15.20
2022,10,05,10,30,15.20
2022,10,05,10,31,15.20
2022,10,05,10,32,15.30
2022,10,05,10,33,15.30
2022,10,05,10,34,15.30
2022,10,05,10,35,15.30
2022,10,05,10,36,15.30
2022,10,05,10,37,15.30
2022,10,05,10,38,15.30
2022,10,05,10,39,15.40
2022,10,05,10,40,15.40
2022,10,05,10,41,15.40
2022,10,05,10,42,15.40
2022,10,05,10,43,15.40
2022,10,05,10,44,15.50
2022,10,05,10,45,15.50
2022,10,05,10,46,15.50
2022,10,05,10,47,15.60
2022,10,05,10,48,15.60
2022,10,05,10,49,15.60
2022,10,05,10,50,15.70
2022,10,05,10,51,15.70
2022,10,05,10,52,15.70
2022,10,05,10,53,15.70
2022,10,05,10,54,15.70
2022,10,05,10,55,15.70
2022,10,05,10,56,15.60
2022,10,05,10,57,15.60
2022,10,05,10,58,15.60
2022,10,05,10,59,15.50
2022,10,05,11,00,15.50
2022,10,05,11,01,15.50
2022,10,05,11,02,15.50
2022,10,05,11,03,15.50
2022,10,05,11,04,15.50
2022,10,05,11,05,15.50
2022,10,05,11,06,15.40
2022,10,05,11,07,15.50
2022,10,05,11,08,15.50
2022,10,05,11,09,15.50
2022,10,05,11,10,15.50
2022,10,05,11,11,15.50
2022,10,05,11,12,15.60
2022,10,05,11,13,15.60
2022,10,05,11,14,15.70
2022,10,05,11,15,15.70
2022,10,05,11,16,15.80
2022,10,05,11,17,15.80
2022,10,05,11,18,15.80
2022,10,05,11,19,15.80
2022,10,05,11,20,15.80
2022,10,05,11,21,15.80
2022,10,05,11,22,15.80
2022,10,05,11,23,15.80
2022,10,05,11,24,15.70
2022,10,05,11,25,15.70
2022,10,05,11,26,15.70
2022,10,05,11,27,15.60
2022,10,05,11,28,15.60
2022,10,05,11,29,15.60
2022,10,05,11,30,15.60
2022,10,05,11,31,15.60
2022,10,05,11,32,15.60
2022,10,05,11,33,15.60
2022,10,05,11,34,15.70
2022,10,05,11,35,15.70
2022,10,05,11,36,15.70
2022,10,05,11,37,15.70
2022,10,05,11,38,15.60
2022,10,05,11,39,15.60
2022,10,05,11,40,15.60
2022,10,05,11,41,15.60
2022,10,05,11,42,15.60
2022,10,05,11,43,15.70
2022,10,05,11,44,15.70
2022,10,05,11,45,15.70
2022,10,05,11,46,15.80
2022,10,05,11,47,15.80
2022,10,05,11,48,15.90
2022,10,05,11,49,15.90
2022,10,05,11,50,15.90
2022,10,05,11,51,15.90
2022,10,05,11,52,16.00
2022,10,05,11,53,16.00
2022,10,05,11,54,15.90
2022,10,05,11,55,15.90
2022,10,05,11,56,15.90
2022,10,05,11,57,15.90
2022,10,05,11,58,15.90
2022,10,05,11,59,15.90
2022,10,05,12,00,15.90
2022,10,05,12,01,15.90
2022,10,05,12,02,16.00
2022,10,05,12,03,16.00
2022,10,05,12,04,16.10
2022,10,05,12,05,16.10
2022,10,05,12,06,16.20
2022,10,05,12,07,16.20
2022,10,05,12,08,16.30
2022,10,05,12,09,16.40
2022,10,05,12,10,16.50
2022,10,05,12,11,16.60
2022,10,05,12,12,16.80
2022,10,05,12,13,16.90
2022,10,05,12,14,16.90
2022,10,05,12,15,17.00
2022,10,05,12,16,17.00
2022,10,05,12,17,17.00
2022,10,05,12,18,17.00
2022,10,05,12,19,17.00
2022,10,05,12,20,17.00
2022,10,05,12,21,16.90
2022,10,05,12,22,16.90
2022,10,05,12,23,16.90
2022,10,05,12,24,16.90
2022,10,05,12,25,17.00
2022,10,05,12,26,17.00
2022,10,05,12,27,17.10
2022,10,05,12,28,17.00
2022,10,05,12,29,17.10
2022,10,05,12,30,17.10
2022,10,05,12,31,17.00
2022,10,05,12,32,17.00
2022,10,05,12,33,17.10
2022,10,05,12,34,17.10
2022,10,05,12,35,17.20
2022,10,05,12,36,17.30
2022,10,05,12,37,17.30
2022,10,05,12,38,17.30
2022,10,05,12,39,17.30
2022,10,05,12,40,17.30
2022,10,05,12,41,17.30
2022,10,05,12,42,17.40
2022,10,05,12,43,17.40
2022,10,05,12,44,17.30
2022,10,05,12,45,17.30
2022,10,05,12,46,17.40
2022,10,05,12,47,17.40
2022,10,05,12,48,17.50
2022,10,05,12,49,17.50
2022,10,05,12,50,17.50
2022,10,05,12,51,17.50
2022,10,05,12,52,17.60
2022,10,05,12,53,17.60
2022,10,05,12,54,17.70
2022,10,05,12,55,17.70
2022,10,05,12,56,17.70
2022,10,05,12,57,17.70
2022,10,05,12,58,17.60
2022,10,05,12,59,17.40
2022,10,05,13,00,17.30
2022,10,05,13,01,17.30
2022,10,05,13,02,17.30
2022,10,05,13,03,17.30
2022,10,05,13,04,17.30
2022,10,05,13,05,17.20
2022,10,05,13,06,17.20
2022,10,05,13,07,17.20
2022,10,05,13,08,17.20
2022,10,05,13,09,17.20
2022,10,05,13,10,17.20
2022,10,05,13,11,17.10
2022,10,05,13,12,17.10
2022,10,05,13,13,17.10
2022,10,05,13,14,17.20
2022,10,05,13,15,17.30
2022,10,05,13,16,17.30
2022,10,05,13,17,17.50
2022,10,05,13,18,17.60
2022,10,05,13,19,17.70
2022,10,05,13,20,17.80
2022,10,05,13,21,17.80
2022,10,05,13,22,17.80
2022,10,05,13,23,17.80
2022,10,05,13,24,17.80
2022,10,05,13,25,17.80
2022,10,05,13,26,17.80
2022,10,05,13,27,17.90
2022,10,05,13,28,17.90
2022,10,05,13,29,18.00
2022,10,05,13,30,18.00
2022,10,05,13,31,18.10
2022,10,05,13,32,18.00
2022,10,05,13,33,18.00
2022,10,05,13,34,17.90
2022,10,05,13,35,17.80
2022,10,05,13,36,17.70
2022,10,05,13,37,17.70
2022,10,05,13,38,17.70
2022,10,05,13,39,17.70
2022,10,05,13,40,17.60
2022,10,05,13,41,17.60
2022,10,05,13,42,17.50
2022,10,05,13,43,17.50
2022,10,05,13,44,17.50
2022,10,05,13,45,17.50
2022,10,05,13,46,17.60
2022,10,05,13,47,17.60
2022,10,05,13,48,17.60
2022,10,05,13,49,17.70
2022,10,05,13,50,17.70
2022,10,05,13,51,17.80
2022,10,05,13,52,17.80
2022,10,05,13,53,17.80
2022,10,05,13,54,17.80
2022,10,05,13,55,17.80
2022,10,05,13,56,17.80
2022,10,05,13,57,17.80
2022,10,05,13,58,17.70
2022,10,05,13,59,17.70
2022,10,05,14,00,17.70
2022,10,05,14,01,17.70
2022,10,05,14,02,17.60
2022,10,05,14,03,17.60
2022,10,05,14,04,17.60
2022,10,05,14,05,17.60
2022,10,05,14,06,17.60
2022,10,05,14,07,17.60
2022,10,05,14,08,17.60
2022,10,05,14,09,17.60
2022,10,05,14,10,17.60
2022,10,05,14,11,17.60
2022,10,05,14,12,17.60
2022,10,05,14,13,17.60
2022,10,05,14,14,17.60
2022,10,05,14,15,17.60
2022,10,05,14,16,17.70
2022,10,05,14,17,17.70
2022,10,05,14,18,17.80
2022,10,05,14,19,17.90
2022,10,05,14,20,17.90
2022,10,05,14,21,18.00
2022,10,05,14,22,18.10
2022,10,05,14,23,18.20
2022,10,05,14,24,18.30
2022,10,05,14,25,18.40
2022,10,05,14,26,18.50
2022,10,05,14,27,18.60
2022,10,05,14,28,18.70
2022,10,05,14,29,18.70
2022,10,05,14,30,18.70
2022,10,05,14,31,18.70
2022,10,05,14,32,18.70
2022,10,05,14,33,18.70
2022,10,05,14,34,18.70
2022,10,05,14,35,18.70
2022,10,05,14,36,18.70
2022,10,05,14,37,18.60
2022,10,05,14,38,18.60
2022,10,05,14,39,18.50
2022,10,05,14,40,18.50
2022,10,05,14,41,18.40
2022,10,05,14,42,18.50
2022,10,05,14,43,18.60
2022,10,05,14,44,18.60
2022,10,05,14,45,18.60
2022,10,05,14,46,18.50
2022,10,05,14,47,18.50
2022,10,05,14,48,18.50
2022,10,05,14,49,18.40
2022,10,05,14,50,18.40
2022,10,05,14,51,18.40
2022,10,05,14,52,18.40
2022,10,05,14,53,18.50
2022,10,05,14,54,18.50
2022,10,05,14,55,18.60
2022,10,05,14,56,18.80
2022,10,05,14,57,18.90
2022,10,05,14,58,19.00
2022,10,05,14,59,19.10
2022,10,05,15,00,19.20
2022,10,05,15,01,19.20
2022,10,05,15,02,19.20
2022,10,05,15,03,19.20
2022,10,05,15,04,19.20
2022,10,05,15,05,19.10
2022,10,05,15,06,19.10
2022,10,05,15,07,19.00
2022,10,05,15,08,19.00
2022,10,05,15,09,19.00
2022,10,05,15,10,19.00
2022,10,05,15,11,19.00
2022,10,05,15,12,19.00
2022,10,05,15,13,19.10
2022,10,05,15,14,19.10
2022,10,05,15,15,19.10
2022,10,05,15,16,19.20
2022,10,05,15,17,19.40
2022,10,05,15,18,19.50
2022,10,05,15,19,19.60
2022,10,05,15,20,19.70
2022,10,05,15,21,19.70
2022,10,05,15,22,19.80
2022,10,05,15,23,19.90
2022,10,05,15,24,20.00
2022,10,05,15,25,20.00
2022,10,05,15,26,20.10
2022,10,05,15,27,20.10
2022,10,05,15,28,20.10
2022,10,05,15,29,20.20
2022,10,05,15,30,20.20
2022,10,05,15,31,20.20
2022,10,05,15,32,20.30
2022,10,05,15,33,20.30
2022,10,05,15,34,20.40
2022,10,05,15,35,20.50
2022,10,05,15,36,20.50
2022,10,05,15,37,20.50
2022,10,05,15,38,20.40
2022,10,05,15,39,20.20
2022,10,05,15,40,20.10
2022,10,05,15,41,19.90
2022,10,05,15,42,19.70
2022,10,05,15,43,19.60
2022,10,05,15,44,19.60
2022,10,05,15,45,19.50
2022,10,05,15,46,19.50
2022,10,05,15,47,19.60
2022,10,05,15,48,19.60
2022,10,05,15,49,19.70
2022,10,05,15,50,19.70
2022,10,05,15,51,19.60
2022,10,05,15,52,19.60
2022,10,05,15,53,19.50
2022,10,05,15,54,19.40
2022,10,05,15,55,19.30
2022,10,05,15,56,19.30
2022,10,05,15,57,19.20
2022,10,05,15,58,19.20
2022,10,05,15,59,19.30
2022,10,05,16,00,19.40
2022,10,05,16,01,19.50
2022,10,05,16,02,19.50
2022,10,05,16,03,19.60
2022,10,05,16,04,19.70
2022,10,05,16,05,19.70
2022,10,05,16,06,19.60
2022,10,05,16,07,19.50
2022,10,05,16,08,19.50
2022,10,05,16,09,19.40
2022,10,05,16,10,19.40
2022,10,05,16,11,19.40
2022,10,05,16,12,19.40
2022,10,05,16,13,19.40
2022,10,05,16,14,19.40
2022,10,05,16,15,19.40
2022,10,05,16,16,19.40
2022,10,05,16,17,19.50
2022,10,05,16,18,19.50
2022,10,05,16,19,19.60
2022,10,05,16,20,19.60
2022,10,05,16,21,19.70
2022,10,05,16,22,19.70
2022,10,05,16,23,19.70
2022,10,05,16,24,19.70
2022,10,05,16,25,19.70
2022,10,05,16,26,19.70
2022,10,05,16,27,19.80
2022,10,05,16,28,19.80
2022,10,05,16,29,19.80
2022,10,05,16,30,19.80
2022,10,05,16,31,19.80
2022,10,05,16,32,19.80
2022,10,05,16,33,19.80
2022,10,05,16,34,19.80
2022,10,05,16,35,19.80
2022,10,05,16,36,19.80
2022,10,05,16,37,19.80
2022,10,05,16,38,19.80
2022,10,05,16,39,19.80
2022,10,05,16,40,19.90
2022,10,05,16,41,19.90
2022,10,05,16,42,19.90
2022,10,05,16,43,20.00
2022,10,05,16,44,20.00
2022,10,05,16,45,20.00
2022,10,05,16,46,20.10
2022,10,05,16,47,19.90
2022,10,05,16,48,19.80
2022,10,05,16,49,19.70
2022,10,05,16,50,19.60
2022,10,05,16,51,19.40
2022,10,05,16,52,19.30
2022,10,05,16,53,19.20
2022,10,05,16,54,19.10
2022,10,05,16,55,19.00
2022,10,05,16,56,18.90
2022,10,05,16,57,18.80
2022,10,05,16,58,18.80
2022,10,05,16,59,18.70
2022,10,05,17,00,18.70
2022,10,05,17,01,18.70
2022,10,05,17,02,18.70
2022,10,05,17,03,18.60
2022,10,05,17,04,18.60
2022,10,05,17,05,18.60
2022,10,05,17,06,18.50
2022,10,05,17,07,18.50
2022,10,05,17,08,18.50
2022,10,05,17,09,18.50
2022,10,05,17,10,18.50
2022,10,05,17,11,18.50
2022,10,05,17,12,18.40
2022,10,05,17,13,18.40
2022,10,05,17,14,18.40
2022,10,05,17,15,18.40
2022,10,05,17,16,18.30
2022,10,05,17,17,18.20
2022,10,05,17,18,18.20
2022,10,05,17,19,18.10